GFSSE_700_spd_000.txt.gz
Wind_Speed
6 13 16 16 15 11 10 7 4 3 1 2 3 5 5 7 10 12 13 14 14 14 14 14 15 16 17 16 15 16 16 16 15 16 17 16 18 18 15 19 16 11 6
9 14 16 16 14 12 9 7 4 4 3 4 3 5 7 9 12 15 16 17 17 18 18 17 17 18 17 18 19 19 19 20 17 15 16 17 18 19 19 21 20 16 9
12 13 16 15 12 9 7 6 5 4 3 3 4 8 11 13 15 16 18 19 19 20 20 20 18 17 17 20 22 22 21 19 18 14 14 16 21 16 16 18 24 18 10
10 11 13 14 11 8 6 6 5 3 5 6 9 10 15 15 16 17 19 20 20 21 20 20 19 18 20 22 23 24 23 19 17 16 14 17 20 13 16 19 21 26 18
9 12 12 11 9 7 6 5 4 5 8 9 12 13 14 13 13 14 15 17 19 18 17 17 18 19 20 21 20 19 18 18 17 14 14 18 21 27 15 15 18 14 20
10 12 8 6 5 5 5 5 7 9 9 11 11 10 10 10 10 12 13 15 16 16 14 14 15 15 15 15 15 15 17 16 15 15 13 15 20 23 11 12 12 9 13
9 8 7 7 5 5 7 9 9 9 9 7 7 10 11 9 9 12 14 15 16 15 14 14 16 17 16 16 17 17 16 15 15 16 17 24 19 22 5 15 22 16 12
5 6 6 4 7 9 10 7 5 4 3 6 9 10 11 10 11 13 15 17 17 18 19 21 21 21 20 19 18 19 18 16 15 16 19 24 27 17 11 15 21 19 18
4 5 6 8 11 7 3 2 3 3 5 8 10 10 10 11 14 15 18 19 20 22 22 23 24 25 24 23 22 21 20 21 20 20 23 20 21 18 17 19 19 16 18
6 8 9 10 4 4 4 5 6 5 6 7 8 9 11 13 15 17 18 20 22 23 24 26 27 27 27 26 25 25 25 24 22 23 27 22 20 17 19 20 18 17 20
9 8 11 6 4 4 4 5 4 5 7 8 10 11 13 13 15 16 16 19 22 24 26 27 28 30 30 30 30 28 27 29 28 27 30 25 23 22 19 20 20 19 20
11 8 7 4 2 1 5 3 3 4 4 5 7 10 14 15 16 19 21 21 22 23 24 24 27 28 27 28 31 31 30 30 29 31 33 28 26 25 24 21 21 22 22
6 4 8 6 2 1 6 5 4 6 8 7 8 11 14 16 19 21 24 25 27 28 28 27 26 27 26 23 23 25 27 27 28 29 32 28 26 28 28 27 24 24 24
8 9 16 7 6 4 3 1 4 6 8 11 14 16 18 21 22 22 22 25 26 24 24 25 26 27 26 24 23 21 22 23 24 27 31 28 25 27 27 27 29 28 26
13 13 17 12 10 6 3 5 6 9 11 15 19 21 21 23 23 24 23 23 21 20 21 23 25 26 28 28 28 26 26 26 25 25 31 32 30 29 28 27 27 28 28
13 18 21 16 12 9 7 8 11 13 16 18 21 21 21 22 22 21 21 21 20 20 24 27 28 28 28 27 27 28 27 26 28 32 31 34 32 32 31 32 31 30 29
18 18 22 23 10 10 11 12 16 17 20 22 24 24 23 22 22 24 24 26 27 27 29 31 31 31 31 32 34 36 37 35 31 28 30 32 35 36 34 32 33 33 32
17 16 29 18 16 13 18 16 19 21 22 23 26 22 26 29 31 30 29 29 28 28 29 31 30 30 31 31 31 33 36 38 39 41 42 38 39 38 37 38 36 34 33
6 16 9 23 23 22 22 19 22 23 23 24 23 23 32 35 34 35 34 35 36 34 36 35 33 34 33 33 34 34 33 35 38 41 44 43 45 48 48 42 40 38 36
17 20 17 25 22 22 29 24 21 22 24 31 32 28 38 33 38 37 39 41 40 41 42 37 35 37 35 36 36 37 35 34 34 35 38 39 43 44 44 49 46 44 39
21 22 19 22 24 22 27 26 26 28 33 33 32 36 36 37 42 38 40 43 39 44 43 42 41 38 39 37 38 39 39 37 37 36 37 38 42 43 42 40 46 49 45
19 19 18 22 23 22 29 31 28 38 36 35 34 36 41 46 47 49 47 48 47 40 42 40 39 40 41 40 41 44 47 46 43 40 35 34 39 42 47 50 50 45 46
16 16 20 23 23 24 31 34 39 37 37 37 39 48 52 55 52 37 42 42 42 40 38 40 41 43 47 45 46 47 47 49 51 49 47 44 40 36 39 46 44 45 43
11 15 18 22 23 27 33 34 36 38 39 50 49 40 38 38 39 40 38 38 39 43 42 44 46 49 50 52 53 52 51 53 57 59 54 52 47 43 46 40 40 35 43
17 19 23 28 30 32 34 36 40 46 46 46 44 46 43 45 42 39 41 43 46 50 51 50 52 53 55 56 55 55 53 48 46 48 56 58 55 51 51 51 41 47 45
23 25 25 26 30 34 37 39 41 40 40 45 50 53 51 48 46 45 48 51 52 54 54 55 56 56 55 53 46 43 42 44 46 46 48 51 53 53 53 56 55 53 70

GFSSE_700_spd_003.txt.gz
Wind_Speed
12 16 16 14 13 11 7 4 1 1 1 1 2 3 3 5 9 13 15 16 17 17 17 17 17 17 16 16 17 18 16 14 12 11 13 12 11 12 16 17 15 14 14
12 15 16 14 13 10 8 5 4 3 2 2 1 4 6 10 14 17 17 17 18 19 19 19 18 17 16 17 17 18 19 19 16 13 14 12 14 15 15 14 17 15 13
12 14 14 14 13 10 7 6 6 5 4 3 4 7 11 15 17 17 16 16 16 17 19 19 18 17 15 16 18 18 18 18 17 14 15 16 14 15 17 20 16 13 18
14 12 13 14 13 9 6 7 7 4 4 6 8 11 14 15 14 13 11 11 13 16 17 16 14 14 15 17 18 19 18 17 14 13 13 16 15 12 15 22 22 17 14
13 11 12 12 9 6 5 5 4 5 6 8 11 13 12 11 10 9 11 13 15 17 16 15 13 13 12 12 12 13 14 13 12 12 14 14 15 16 16 19 14 12 10
13 11 10 7 5 4 5 6 8 8 9 11 10 7 10 10 9 11 13 14 16 17 17 17 16 16 15 14 14 14 14 14 13 13 11 11 10 16 16 15 14 8 4
9 9 6 5 5 6 8 9 9 9 9 7 4 8 9 10 10 12 14 16 16 17 17 18 19 19 20 19 18 17 18 17 14 12 12 11 13 15 8 1 5 10 10
3 4 4 4 6 9 9 6 5 3 4 3 7 8 9 11 12 14 15 16 16 17 18 19 20 22 22 21 21 19 17 17 19 19 15 14 16 13 13 7 10 13 12
3 4 4 7 8 6 3 1 0 2 2 5 7 8 9 12 12 14 16 18 20 22 22 23 23 23 24 24 24 23 21 20 19 21 19 20 19 17 14 16 15 15 15
5 6 6 7 5 1 1 1 0 3 4 4 6 9 11 11 13 14 16 18 20 22 24 25 27 27 26 26 25 24 23 22 21 24 22 20 20 19 17 15 17 19 18
7 7 5 6 3 3 1 2 4 3 4 6 7 7 8 8 9 14 15 17 19 21 23 24 25 25 24 26 25 22 20 20 18 21 19 17 16 18 18 16 17 18 20
7 9 9 7 4 1 2 4 4 6 6 5 7 8 11 15 18 19 22 23 23 23 23 22 22 23 23 23 25 25 23 20 18 20 18 13 14 15 17 18 18 18 20
6 8 5 3 6 5 5 1 0 4 5 5 9 14 18 18 21 23 23 23 22 22 21 20 21 21 21 22 22 23 25 24 22 21 19 15 12 14 17 18 20 20 21
10 11 4 6 7 5 8 7 10 10 12 13 16 17 19 21 23 22 22 23 24 23 22 20 21 22 22 22 22 21 22 24 24 25 25 23 17 14 14 16 19 21 23
13 13 11 6 8 7 8 7 7 10 12 16 17 19 22 23 23 23 22 23 21 22 22 22 24 23 23 23 24 24 22 20 23 25 26 26 27 21 18 16 17 20 21
15 14 15 11 10 14 11 10 12 12 14 18 19 20 21 25 21 21 22 24 24 25 25 26 26 26 26 27 25 25 25 26 25 24 25 24 24 26 25 22 22 20 21
14 17 18 18 3 12 12 16 18 17 18 20 23 23 21 30 28 30 31 27 29 30 32 30 29 31 31 30 31 28 28 25 25 29 31 32 29 26 27 28 26 26 24
15 20 20 32 24 8 11 17 22 25 21 24 25 27 32 37 34 35 37 36 37 38 36 34 33 35 31 30 30 24 31 32 31 29 29 33 37 35 32 29 28 26 24
12 19 18 19 18 22 14 21 24 25 23 25 25 31 30 32 31 32 33 41 45 44 43 41 35 35 34 32 34 34 34 34 34 34 33 31 33 36 35 33 32 31 28
16 19 19 24 26 25 20 27 27 26 27 27 33 42 41 38 38 37 41 49 51 49 43 38 39 33 33 35 38 37 37 37 37 34 34 34 33 33 34 39 36 35 32
17 23 28 24 19 16 27 20 24 28 32 38 42 34 31 34 40 48 41 44 48 39 34 35 36 36 35 36 40 42 41 39 40 38 35 32 32 34 34 34 37 41 39
23 21 21 24 22 25 28 27 29 30 34 38 32 38 42 44 51 46 43 41 41 42 37 33 35 39 38 39 43 45 48 46 44 42 40 39 40 38 38 41 41 38 44
12 11 12 14 17 21 25 29 33 37 39 38 35 40 46 47 45 46 42 41 42 40 39 38 39 41 45 44 46 48 52 52 54 50 46 45 46 48 46 42 45 46 42
8 13 15 16 18 23 27 32 34 34 35 37 43 49 46 48 48 44 43 43 42 41 43 46 46 46 47 48 49 48 48 50 53 57 52 48 48 50 50 50 47 48 44
17 20 22 25 24 28 29 32 33 37 42 44 45 47 52 50 46 43 42 42 43 44 44 46 48 51 52 52 51 47 45 42 46 46 57 58 53 51 53 54 54 52 48
18 21 20 20 24 28 32 35 36 36 38 43 48 51 50 46 45 46 48 44 44 45 47 50 49 50 48 47 44 42 45 43 45 43 45 48 52 53 52 53 57 60 53

GFSSE_700_spd_006.txt.gz
Wind_Speed
14 17 16 15 11 9 8 3 1 1 1 2 3 4 6 9 11 14 16 18 18 19 18 18 17 17 17 16 16 16 15 13 12 11 12 15 14 10 8 10 11 11 12
15 16 17 14 10 10 6 2 4 4 3 4 3 5 9 12 14 17 17 16 16 14 16 17 16 13 14 14 14 15 17 17 14 14 13 13 15 15 13 11 11 12 16
12 16 14 11 10 8 6 5 7 8 6 4 6 9 12 15 17 14 12 10 9 13 15 15 14 13 12 11 13 13 15 16 15 15 14 16 16 13 12 15 10 14 14
12 13 10 10 10 9 6 8 9 7 5 7 8 12 15 14 12 9 8 8 11 14 13 13 12 13 12 10 10 10 12 13 13 11 13 14 14 14 12 10 15 13 17
13 11 11 10 9 7 9 6 5 6 8 10 11 13 9 11 10 7 8 11 13 13 13 13 13 13 13 12 11 11 12 11 11 12 12 11 10 11 14 15 14 10 10
11 10 9 9 9 8 5 5 7 10 11 11 10 5 10 10 10 10 11 12 13 14 14 14 15 16 14 14 13 14 15 15 13 10 10 10 10 11 15 13 20 17 7
10 10 9 7 5 4 7 10 12 12 10 6 3 7 9 10 11 11 13 14 14 15 16 16 17 18 19 19 18 17 17 16 15 11 9 8 9 11 12 11 4 6 9
8 8 6 4 5 8 11 9 6 3 2 1 5 7 9 9 11 13 13 15 17 18 19 19 18 18 17 18 19 19 18 18 17 16 14 11 11 13 12 10 11 11 10
6 4 4 4 6 5 0 1 1 2 2 4 5 6 7 9 10 11 15 17 19 21 22 23 22 22 21 19 19 18 17 16 18 16 15 16 13 11 10 11 11 14 14
5 3 3 5 3 2 2 1 1 2 3 3 3 5 7 10 11 13 16 17 18 19 20 21 22 21 21 20 18 17 16 15 16 15 13 15 16 15 13 11 12 12 15
4 2 3 4 3 3 3 2 2 3 3 4 6 7 8 10 13 16 17 18 19 19 19 19 19 19 19 19 18 17 14 14 14 12 11 12 13 14 15 15 14 14 13
6 3 2 4 4 3 4 4 4 6 6 5 5 9 11 15 18 20 21 21 20 20 21 18 17 17 16 16 17 18 18 16 15 13 10 9 11 12 14 13 15 17 17
2 6 6 7 7 4 3 4 3 4 4 7 10 13 15 17 20 23 24 22 21 22 20 17 17 19 19 18 17 17 18 19 19 19 16 13 11 11 14 14 16 17 19
7 9 7 6 6 6 6 4 6 6 8 10 11 15 17 20 22 26 25 25 26 27 24 21 21 21 21 19 20 22 20 19 19 20 21 19 14 11 13 15 17 19 20
5 7 3 1 4 7 9 10 12 14 15 15 15 17 18 20 21 26 28 24 29 31 29 28 30 29 26 26 27 25 24 21 21 20 20 19 19 16 13 14 16 19 21
5 7 8 11 6 21 11 15 16 19 20 20 19 20 22 24 24 31 32 31 33 33 31 33 35 35 33 33 29 29 25 24 24 25 25 25 24 21 21 17 15 18 21
8 6 12 12 17 19 11 16 15 18 21 24 25 26 28 28 29 38 37 38 37 36 40 42 44 41 39 35 34 32 30 29 24 24 28 28 29 29 27 24 22 18 16
9 14 11 15 17 20 14 12 14 18 24 24 29 30 28 34 41 38 37 35 39 39 48 49 44 43 38 40 37 34 32 32 30 32 29 29 31 31 31 29 26 23 19
12 13 15 16 20 16 16 18 21 21 20 22 26 27 32 35 31 30 32 37 42 47 40 37 36 38 37 38 38 37 35 34 33 34 35 36 34 34 32 31 29 29 26
12 13 16 18 21 21 22 22 18 17 21 26 28 27 32 35 33 33 41 50 45 43 41 40 39 38 40 41 40 40 37 35 35 36 39 39 39 39 38 37 33 33 33
16 18 18 19 24 21 20 13 15 22 26 29 32 32 30 33 36 46 45 46 45 48 47 42 41 40 40 39 42 42 41 38 38 38 41 42 43 43 40 41 40 37 34
20 21 20 15 15 14 13 18 23 25 28 28 30 36 41 41 44 42 46 48 49 45 42 41 42 43 42 42 45 46 50 47 42 41 43 46 46 46 44 41 42 40 39
10 7 7 7 10 15 20 24 26 27 29 34 36 36 36 41 44 47 49 47 43 42 43 43 42 44 46 46 46 48 51 53 54 49 47 48 49 50 51 51 50 52 50
6 9 12 13 17 21 24 26 28 31 34 37 38 38 38 43 48 49 45 41 41 43 46 47 46 45 46 47 47 47 47 49 53 59 57 53 51 51 52 54 55 53 50
18 19 18 21 24 23 24 26 26 29 29 32 37 39 45 48 49 49 42 40 43 44 41 43 43 44 46 47 47 47 47 48 49 49 58 57 55 50 49 52 54 57 56
16 19 17 14 20 22 27 34 36 39 42 44 46 50 48 50 49 56 44 43 42 44 44 44 46 49 51 51 49 47 46 46 47 45 48 52 49 48 42 41 44 48 49

GFSSE_700_spd_009.txt.gz
Wind_Speed
15 17 14 11 9 7 8 4 1 2 3 4 4 5 7 10 14 17 20 21 19 17 16 16 17 16 15 14 13 14 14 15 15 12 10 9 10 8 8 9 12 12 13
13 12 12 11 9 8 8 4 5 6 6 6 4 6 10 14 17 17 14 11 10 11 13 13 11 10 9 9 11 13 14 14 14 13 12 10 6 9 10 13 14 13 13
12 13 11 11 9 9 6 4 7 8 7 5 7 9 12 16 14 11 9 8 10 13 14 14 13 13 12 11 10 10 11 12 12 12 13 14 11 8 8 10 10 12 12
11 10 10 11 9 7 6 6 8 8 5 7 9 11 14 11 11 8 9 10 11 12 12 12 13 14 13 12 11 10 10 11 11 10 10 10 9 9 9 12 14 12 18
13 12 11 10 8 8 7 9 6 5 7 9 10 12 8 9 9 9 10 12 12 13 13 13 14 15 15 15 14 14 15 13 12 11 9 8 7 8 10 9 15 13 9
15 12 12 10 9 8 8 6 6 8 10 11 10 5 8 9 9 10 11 11 12 12 13 14 15 16 17 16 15 15 15 15 12 12 9 7 8 8 9 9 7 16 15
13 13 11 9 7 5 5 8 10 12 11 6 3 6 7 8 10 10 11 12 13 14 16 16 16 15 15 16 16 15 14 15 13 12 11 9 9 8 10 9 4 6 7
11 11 9 6 3 5 9 10 7 3 1 1 2 4 7 10 11 12 13 15 17 18 19 19 19 18 17 15 14 13 12 13 13 11 13 12 11 11 13 13 8 8 10
12 7 4 1 4 5 3 2 1 2 2 3 4 7 9 9 10 12 15 16 17 18 19 20 21 20 19 17 16 15 12 10 9 10 11 13 15 14 14 13 12 12 14
7 4 2 2 2 2 2 2 4 3 3 4 6 7 9 10 12 15 16 17 17 16 18 20 19 19 21 21 19 17 15 12 9 7 8 11 13 16 17 17 16 15 16
4 3 2 1 3 4 5 3 4 4 4 5 6 7 8 10 14 18 19 20 19 18 20 21 19 17 18 19 21 20 18 15 13 9 8 8 11 14 17 18 19 18 17
3 3 2 5 6 5 4 3 4 3 3 2 4 7 9 13 16 19 23 23 22 23 23 23 21 20 21 21 21 20 22 23 20 15 11 11 11 12 14 16 18 20 20
4 5 7 6 6 5 4 2 2 3 2 5 9 10 13 17 18 21 23 26 27 26 25 25 22 21 24 26 24 22 24 27 26 23 18 15 14 14 14 16 18 19 21
9 8 6 5 3 6 2 2 5 6 7 10 14 18 19 22 21 22 22 27 30 28 27 26 24 25 27 29 28 27 29 29 28 26 25 22 20 16 16 17 19 21 23
5 5 3 6 3 9 7 9 11 12 13 14 17 21 23 25 25 22 26 31 31 30 30 30 31 37 38 36 34 32 29 30 30 30 29 27 25 23 20 19 19 21 24
12 10 9 8 5 7 12 10 15 13 16 17 21 21 24 27 26 26 33 33 34 34 35 39 40 42 43 39 37 34 32 33 34 34 35 34 31 28 25 23 21 21 22
8 6 6 9 8 12 16 17 14 14 18 19 19 18 23 24 25 31 37 39 40 37 37 42 47 43 38 39 37 36 34 35 35 36 39 37 35 33 32 30 27 23 24
5 9 14 16 16 13 17 16 17 16 18 16 17 20 24 26 29 32 37 38 38 36 40 46 43 40 41 42 40 37 35 36 38 39 39 39 40 38 35 35 33 32 29
10 16 20 22 22 15 14 11 21 19 15 14 20 25 28 31 33 35 32 34 39 42 52 48 47 48 48 45 42 40 38 37 39 40 41 42 43 42 40 38 38 36 34
11 17 21 21 22 20 12 27 14 15 15 20 26 30 31 31 34 36 36 40 45 50 51 51 51 50 47 47 45 43 40 40 40 42 43 43 44 45 45 44 42 41 40
16 20 19 21 23 23 18 17 13 15 23 26 30 30 32 34 35 41 41 47 48 50 53 53 49 45 44 46 49 50 47 44 44 45 47 47 47 47 47 48 48 47 45
17 16 17 21 20 14 15 14 19 23 26 28 30 30 33 37 39 42 44 46 51 52 52 49 46 46 46 49 52 55 57 54 49 48 48 50 51 50 49 49 49 50 50
17 20 17 13 11 14 16 19 21 22 24 26 29 31 35 38 42 44 48 53 53 51 49 48 46 47 49 49 50 51 53 54 55 51 48 51 52 52 52 52 53 53 52
10 11 13 11 13 15 15 15 17 20 24 28 32 36 40 43 46 49 53 51 55 48 41 44 45 46 46 46 45 45 48 52 56 60 56 52 52 53 53 53 55 56 56
15 18 19 18 17 15 20 24 27 32 37 39 42 45 47 49 53 58 46 51 46 42 42 39 42 46 49 51 52 52 51 53 57 60 62 58 56 51 49 52 53 54 56
11 14 14 17 21 28 32 34 39 42 45 48 51 53 52 54 51 50 44 52 58 47 42 44 45 46 47 48 47 50 55 56 55 55 55 55 55 54 48 39 35 37 40

GFSSE_700_spd_012.txt.gz
Wind_Speed
18 17 14 12 10 8 8 4 3 4 5 5 4 6 10 12 15 16 15 12 10 10 12 13 11 10 10 10 10 10 8 6 6 6 6 5 7 9 10 9 9 9 12
15 16 13 11 9 9 8 3 1 3 4 4 4 6 9 13 14 12 10 8 10 12 13 13 12 12 11 9 9 9 10 10 9 8 5 5 5 8 8 11 11 13 14
16 13 12 11 9 9 8 4 2 4 4 3 6 8 11 12 10 9 9 10 13 14 14 14 14 13 12 11 11 11 11 11 11 10 7 3 3 5 9 11 11 10 13
12 13 12 11 10 10 7 3 5 6 4 4 7 9 10 9 9 9 11 12 12 13 15 15 15 15 14 13 12 12 11 10 11 11 9 4 3 6 9 9 11 15 13
11 14 12 11 10 8 5 3 6 4 4 7 9 9 6 8 8 9 11 11 12 14 15 16 16 17 16 15 13 12 12 11 10 10 10 7 4 4 5 7 13 13 14
16 15 13 11 9 7 3 5 4 6 7 9 7 3 6 8 9 10 11 12 12 13 14 15 16 17 17 16 15 14 13 11 9 9 10 8 6 7 9 8 9 11 14
16 14 12 10 7 5 4 5 8 9 8 3 1 5 7 7 9 11 12 13 14 15 16 17 17 17 16 16 15 14 13 13 10 10 10 10 9 10 10 11 10 11 9
13 12 11 8 6 3 6 7 5 0 1 2 4 5 6 8 10 12 14 15 16 16 16 18 19 19 18 17 16 15 14 13 12 10 12 12 12 13 13 13 14 14 11
14 12 9 5 3 4 3 3 4 4 4 5 5 6 7 8 11 13 15 16 16 15 16 19 21 19 19 19 19 18 16 15 14 12 13 13 13 14 16 17 14 16 17
13 9 5 3 3 4 4 6 6 6 6 6 6 6 6 7 10 14 16 18 18 17 17 18 19 19 19 20 21 22 18 16 17 16 14 14 15 15 15 17 18 18 19
8 5 4 4 6 7 8 6 6 6 6 6 4 5 6 8 11 13 15 18 19 21 22 22 21 18 18 19 20 21 21 20 19 18 18 17 16 16 16 17 18 19 21
5 4 4 7 9 9 7 7 6 5 4 2 4 6 9 13 15 17 18 18 20 23 23 23 22 20 19 20 24 25 23 23 23 23 22 19 19 18 17 18 19 20 22
3 5 8 8 9 7 6 5 3 1 1 3 7 10 13 16 18 19 19 19 21 23 25 26 23 21 21 24 28 29 29 27 27 26 25 23 22 22 20 20 21 21 21
6 10 7 5 10 7 5 2 1 4 5 7 10 13 15 17 19 21 21 21 25 27 29 28 25 26 28 30 31 28 27 29 29 29 27 28 27 26 28 27 24 24 25
3 7 7 7 4 7 7 4 5 8 10 11 14 16 18 18 21 22 21 26 28 29 31 31 32 33 37 38 35 32 33 29 30 31 31 31 32 32 31 33 31 28 28
9 6 2 2 3 4 3 7 7 9 12 14 17 19 18 18 21 22 25 29 32 33 32 34 36 38 43 41 40 40 37 35 35 33 34 34 36 38 38 36 35 33 30
3 1 3 8 9 10 8 8 11 8 12 16 18 19 18 20 23 25 30 33 37 35 33 36 40 43 46 46 43 41 42 42 43 39 38 38 39 40 42 41 40 38 35
2 5 13 14 18 19 14 13 17 18 11 17 17 17 18 23 27 29 31 34 31 36 36 44 46 48 51 49 47 45 45 41 40 41 42 43 43 42 44 43 43 43 42
7 9 18 21 26 26 15 8 15 22 17 15 15 18 24 28 28 31 33 38 34 38 49 46 49 52 53 52 51 49 44 40 39 39 40 42 45 47 47 47 47 46 45
12 13 19 23 23 22 14 20 17 17 15 16 18 24 29 29 33 35 34 39 45 46 47 51 51 53 55 56 52 49 46 42 42 42 42 45 47 49 50 50 50 50 49
14 16 18 20 21 23 16 15 13 14 16 21 26 27 28 29 34 39 42 45 47 49 50 53 56 55 53 54 51 49 46 45 47 49 49 47 49 50 51 52 53 54 53
16 17 16 17 17 14 12 13 14 18 23 24 26 28 31 34 37 40 43 46 48 51 55 57 52 53 50 49 49 49 53 53 51 50 50 47 47 48 51 52 54 53 54
17 18 18 17 17 18 17 18 20 22 23 25 28 33 35 38 41 45 48 51 54 54 56 52 51 53 49 51 49 46 48 50 51 49 47 47 46 49 50 51 53 55 56
13 12 14 17 19 19 16 16 21 25 29 33 37 42 45 48 51 53 55 56 53 54 55 54 55 54 53 42 42 42 42 45 48 52 51 50 54 56 55 51 54 56 59
20 13 11 12 11 14 21 25 30 33 37 41 45 46 48 51 54 54 55 53 53 57 52 53 53 49 46 43 43 42 43 43 45 50 53 52 50 52 52 48 48 51 52
10 15 13 15 18 20 25 31 36 39 41 45 48 47 50 53 52 51 50 50 47 46 44 45 47 51 42 42 42 45 44 43 46 49 48 45 44 40 45 46 45 43 40

GFSSE_700_spd_015.txt.gz
Wind_Speed
22 20 18 16 14 12 11 8 6 5 5 6 6 7 9 13 15 12 12 12 11 12 13 14 14 13 13 12 12 11 8 6 4 6 8 8 8 7 9 10 11 13 12
22 22 19 16 14 12 9 6 4 4 4 4 4 7 11 13 10 9 10 10 12 13 12 12 13 12 11 11 10 8 7 6 6 4 5 9 9 9 10 11 12 12 13
23 19 18 16 12 11 8 4 2 3 3 2 4 7 10 7 8 9 9 10 11 12 13 13 13 13 12 11 10 9 7 6 5 5 4 4 9 11 12 12 11 10 9
20 18 17 16 12 10 7 3 2 3 1 1 5 7 4 7 9 9 11 11 12 13 14 14 15 15 13 12 11 11 9 8 7 6 5 5 7 10 11 13 12 10 13
18 18 17 14 11 9 7 5 3 1 1 4 6 4 5 7 8 10 11 11 13 13 14 15 15 15 14 14 13 12 11 10 9 9 7 5 7 9 7 9 12 15 14
21 19 16 13 12 9 7 4 4 2 3 5 1 3 5 7 9 10 11 12 12 12 12 14 15 15 15 14 14 13 13 13 10 10 11 8 8 10 11 11 12 12 12
21 18 15 13 11 9 6 5 5 5 3 3 5 6 7 9 9 10 11 12 13 13 13 15 17 17 16 15 14 13 14 14 13 12 12 13 11 11 13 15 15 14 13
18 16 15 13 10 8 6 6 5 2 5 6 7 8 8 8 9 10 12 12 13 14 15 18 20 20 17 16 15 16 16 16 15 14 14 14 14 14 16 16 16 16 15
18 15 12 10 7 6 5 4 6 7 8 8 9 7 7 7 9 12 13 14 15 15 16 18 19 19 17 16 17 18 16 16 16 16 16 16 15 14 15 19 20 20 17
17 15 11 8 6 6 7 8 8 9 10 10 8 5 5 5 8 9 11 13 14 16 17 19 20 19 17 14 14 16 19 19 19 18 19 19 18 17 15 16 19 21 22
13 11 8 7 7 9 10 9 9 9 10 8 6 3 3 6 8 10 12 14 14 17 19 21 21 20 19 17 17 18 19 21 21 21 23 22 21 19 18 17 18 20 21
9 6 6 9 11 11 10 11 9 8 7 5 1 1 4 7 10 12 13 15 16 18 21 23 23 21 20 19 20 22 24 24 24 23 24 24 23 22 20 19 19 22 23
7 6 8 11 11 11 10 9 7 5 4 2 4 6 8 11 12 14 15 15 17 21 25 27 26 22 23 25 28 28 26 24 23 25 26 25 26 25 25 24 22 22 25
7 9 10 11 10 10 9 7 5 3 4 5 8 10 12 12 13 15 17 18 22 25 28 31 29 28 29 31 30 31 31 29 27 27 27 28 27 29 31 30 29 29 28
10 11 10 11 10 9 8 7 5 5 9 11 12 13 13 13 14 17 19 21 23 27 30 32 30 31 36 38 37 36 37 34 33 32 33 34 34 32 32 34 36 35 33
11 10 9 10 11 8 7 7 7 7 11 13 16 16 14 14 16 20 22 24 28 30 34 33 33 32 41 42 43 43 42 41 40 39 38 39 38 38 37 37 37 38 39
8 8 8 10 10 12 15 15 7 12 19 19 18 16 17 16 16 21 25 27 31 33 35 38 38 41 46 46 46 46 45 45 47 46 43 40 39 39 39 38 39 39 40
10 11 11 13 15 18 22 20 15 10 16 17 17 15 17 18 23 25 28 32 38 40 37 40 45 47 49 50 50 51 50 50 49 47 45 43 41 39 39 38 39 41 42
10 11 14 17 18 21 24 19 9 9 15 15 14 16 18 22 27 31 34 34 37 39 43 45 47 50 51 51 53 54 53 51 50 48 47 47 46 46 46 45 44 43 44
10 12 13 19 21 20 21 13 11 8 9 12 15 19 25 30 32 32 34 37 38 40 44 47 49 52 53 56 56 55 49 47 48 48 47 47 48 49 50 51 51 51 49
16 14 15 17 19 20 19 16 14 11 13 18 21 24 26 27 29 31 34 37 39 43 45 48 49 51 51 53 53 53 52 52 52 50 51 50 51 52 53 52 51 51 52
16 12 13 15 16 17 16 17 14 14 17 21 23 25 28 31 35 38 40 43 47 49 51 53 52 52 54 54 54 55 56 56 56 52 51 51 54 52 50 50 51 53 53
3 7 10 11 10 10 11 13 13 19 22 24 26 30 34 37 40 41 44 47 50 52 53 54 55 54 53 52 50 49 50 52 52 49 45 43 44 45 46 48 51 54 54
7 5 7 10 12 12 12 13 17 20 24 29 33 36 39 42 43 45 47 48 49 50 50 50 49 47 46 45 44 45 35 38 42 45 44 43 40 41 44 45 46 46 46
11 16 18 16 13 11 12 17 22 26 31 35 38 40 42 44 45 46 47 48 47 47 46 45 43 43 42 41 41 39 41 39 41 44 44 42 44 46 47 48 47 45 41
18 14 16 18 17 17 19 23 26 30 35 39 40 41 43 44 44 46 47 47 45 44 44 44 41 40 44 45 44 48 35 33 36 41 44 45 43 43 45 44 43 41 37

GFSSE_700_spd_018.txt.gz
Wind_Speed
22 21 21 20 18 15 13 10 8 6 5 4 3 5 8 11 9 9 10 11 11 11 12 12 12 11 11 11 9 7 5 4 4 7 7 9 9 10 11 11 12 12 13
24 22 21 19 18 16 13 8 6 4 3 2 3 6 9 8 9 10 10 10 11 11 12 12 12 12 10 9 7 5 5 5 4 5 7 9 11 12 11 12 13 13 14
22 18 21 20 17 16 12 7 4 2 1 2 4 7 7 7 8 9 9 10 11 12 13 13 12 11 11 10 9 8 7 7 7 7 7 8 12 12 13 13 12 12 13
21 20 20 19 17 15 9 6 3 1 1 2 4 6 4 5 7 9 10 11 12 12 12 12 13 13 13 13 12 11 9 9 8 9 8 8 10 11 13 14 13 13 12
24 23 19 17 16 12 9 6 2 2 2 2 3 1 3 5 7 10 10 10 11 10 11 13 14 14 13 12 12 12 12 12 10 10 11 9 11 8 10 12 12 12 14
26 19 17 16 15 12 9 6 3 3 2 3 1 3 4 7 9 9 9 10 10 10 11 13 15 15 13 12 11 12 14 14 13 11 13 13 12 13 12 14 15 15 14
31 23 18 16 14 11 9 5 4 3 3 3 5 5 7 8 8 8 8 9 10 10 11 12 13 14 13 11 12 13 12 11 12 13 13 14 15 16 18 18 17 17 17
19 22 21 16 13 11 7 6 4 4 6 8 7 8 8 7 7 8 9 10 10 10 12 14 15 15 14 14 13 13 14 14 13 12 13 14 15 15 17 20 21 19 19
22 20 17 15 12 10 8 5 7 9 10 10 11 9 7 6 6 6 8 8 9 10 12 15 16 18 17 16 14 14 16 17 17 17 15 15 17 17 17 18 20 20 20
21 17 15 12 11 8 8 9 10 12 12 13 11 8 6 4 3 4 6 8 11 13 14 17 19 21 21 19 17 15 16 19 21 20 20 18 18 19 19 18 19 20 19
17 15 12 10 8 10 12 12 13 13 13 13 10 7 4 1 2 5 7 10 13 14 16 20 22 24 23 21 18 18 20 19 20 21 21 21 21 20 20 20 20 21 21
13 10 8 9 12 13 13 12 12 12 13 12 10 7 5 4 3 4 6 11 14 15 17 21 25 26 24 20 22 21 21 21 21 21 24 24 23 22 21 22 23 23 23
10 8 10 13 13 12 13 13 13 12 12 11 9 7 8 8 7 7 10 13 16 18 20 25 29 30 27 23 26 25 23 24 23 24 24 23 24 25 25 24 26 27 28
10 10 12 14 13 13 14 14 12 11 10 9 9 11 11 12 12 12 12 15 17 19 22 26 29 34 27 28 32 32 30 29 28 28 31 29 29 29 30 31 31 31 30
12 13 13 12 13 13 12 12 10 9 9 10 13 14 16 13 17 15 14 17 20 24 28 29 35 33 29 34 38 38 37 36 34 32 35 33 34 35 35 34 35 36 37
14 13 13 12 12 13 13 13 13 10 7 11 19 19 23 27 23 15 17 21 25 28 32 34 33 35 36 39 43 42 43 43 42 40 39 44 40 37 36 37 36 37 39
13 12 11 11 13 16 16 17 19 7 10 16 17 21 26 17 15 15 20 24 29 33 34 34 37 40 42 43 45 47 48 48 49 47 46 42 44 44 41 40 39 38 38
12 11 11 14 17 22 24 22 21 15 8 12 18 20 18 17 17 20 26 31 34 33 35 38 40 41 45 46 47 49 50 49 49 50 47 43 43 43 47 46 42 42 41
14 14 14 18 18 21 20 18 6 7 10 14 15 14 16 19 22 28 30 32 34 37 39 40 44 44 45 49 49 48 49 49 46 47 50 49 50 49 49 53 47 44 47
14 15 16 20 22 20 19 18 11 9 8 9 11 15 18 22 25 28 31 34 37 39 41 42 45 47 47 50 45 46 48 48 48 46 48 51 52 56 53 54 56 55 55
15 14 15 17 19 18 14 14 10 9 9 11 13 17 19 22 26 29 33 35 36 39 42 45 46 47 49 49 48 49 49 48 51 50 53 52 51 54 54 54 54 58 59
21 20 17 14 14 12 11 11 13 10 10 13 16 19 23 27 31 34 35 38 40 42 45 47 47 47 47 52 52 50 49 45 35 31 49 51 52 54 52 50 51 50 50
11 9 5 7 9 10 10 9 7 10 12 16 21 26 30 33 36 38 39 40 42 44 45 46 47 47 45 47 52 49 48 45 48 47 42 44 45 45 44 45 47 48 50
7 1 9 12 8 8 8 10 10 14 19 22 28 31 35 38 39 40 42 43 44 43 44 45 45 43 46 44 46 42 43 43 42 46 43 35 39 38 42 43 45 46 48
4 11 12 11 16 16 15 16 18 22 25 28 31 34 38 39 40 42 43 44 44 43 43 42 44 44 43 42 37 41 40 41 40 37 39 37 37 34 37 39 45 44 43
12 7 10 12 15 16 19 22 24 28 31 33 35 39 38 38 41 42 45 42 42 41 42 42 41 38 35 33 39 41 43 38 35 34 33 33 35 34 28 35 38 39 43

GFSSE_700_spd_021.txt.gz
Wind_Speed
22 22 22 21 21 18 15 11 8 6 5 4 3 5 7 6 6 7 8 9 10 12 13 13 12 10 9 8 8 8 7 8 8 8 8 10 12 13 11 11 12 11 12
22 24 23 22 21 18 15 12 8 5 4 3 3 5 6 5 6 7 9 11 12 12 13 12 12 11 11 11 10 9 9 10 10 11 11 11 11 13 13 12 13 13 12
25 25 23 22 22 19 15 11 7 4 4 3 3 5 3 5 7 8 11 11 12 10 10 10 12 12 11 11 11 11 10 10 10 10 10 12 20 11 11 13 13 13 14
26 26 22 23 21 19 14 10 6 3 4 2 3 3 4 6 8 10 10 9 8 9 10 11 11 10 10 10 11 11 11 10 10 11 11 5 19 11 12 13 12 12 13
28 27 25 21 21 18 13 9 5 4 4 1 1 4 5 8 9 8 8 8 9 9 9 10 11 12 12 12 11 11 12 12 11 11 13 10 17 14 13 14 13 12 13
24 27 25 19 19 16 12 8 5 6 3 0 4 5 7 8 7 7 8 9 8 7 9 11 13 13 13 12 12 11 12 12 12 10 15 14 13 13 14 16 16 17 16
25 27 21 18 17 14 11 8 7 5 3 4 7 7 8 7 7 7 7 7 8 9 11 13 15 16 16 16 15 12 10 11 11 12 14 14 16 16 14 14 17 18 18
24 24 23 18 15 13 11 9 7 5 6 9 9 10 9 8 6 6 5 6 8 10 11 14 16 17 18 18 17 16 15 13 12 13 15 16 18 18 18 17 15 15 16
24 29 21 19 15 13 10 8 7 8 10 11 12 11 8 6 5 3 5 6 8 9 11 14 17 20 21 20 19 17 16 15 15 15 14 17 19 20 20 18 17 16 15
17 24 18 17 14 11 10 9 11 12 13 13 13 10 8 6 2 1 4 7 9 10 12 14 18 22 24 22 18 18 20 19 17 13 16 19 20 21 21 22 20 19 17
13 15 17 15 13 12 12 12 12 12 12 13 12 10 7 3 2 3 7 10 13 13 14 17 20 23 25 27 23 19 22 20 18 16 19 18 20 21 21 20 21 22 22
16 14 13 12 12 11 12 11 12 14 15 14 11 8 7 5 5 7 7 10 14 16 18 19 22 26 28 28 25 24 25 23 23 23 22 18 19 20 21 22 22 23 24
14 12 10 10 11 14 14 13 13 13 12 11 10 9 9 10 10 9 10 12 15 17 19 22 28 27 31 31 24 26 28 26 26 28 30 25 23 23 25 26 27 26 26
8 7 10 14 14 13 13 14 12 13 11 12 12 11 13 13 14 12 11 15 17 19 20 24 27 33 35 32 31 30 32 33 31 30 35 35 29 29 29 30 30 31 31
8 10 11 12 12 13 14 13 13 12 11 8 10 12 17 20 21 20 28 18 19 22 25 27 31 35 36 34 36 39 39 38 39 38 38 38 38 33 33 33 32 32 34
11 11 11 11 10 11 11 13 15 14 10 9 11 19 25 28 28 33 21 17 20 23 26 33 37 35 36 38 41 42 45 46 45 44 40 38 41 42 36 35 33 32 33
12 11 10 9 9 10 12 18 20 18 14 7 10 22 17 21 19 16 14 17 23 28 33 35 36 38 40 44 45 46 46 46 45 44 45 42 36 38 42 41 37 36 37
11 10 10 11 12 14 18 22 28 7 3 14 18 16 21 18 16 16 19 23 26 31 35 37 40 43 42 43 47 49 48 46 44 44 39 33 37 41 40 45 46 41 43
12 12 12 15 16 18 20 22 19 2 5 9 14 15 12 13 16 20 23 26 30 34 37 39 40 41 46 47 47 48 45 45 43 41 39 31 38 41 44 42 48 42 47
15 16 15 18 20 21 22 19 15 6 6 9 10 11 14 16 19 22 26 28 31 35 38 41 43 44 46 49 51 50 47 44 43 43 40 29 37 39 44 50 52 53 56
18 20 17 18 18 23 15 16 11 8 8 10 11 14 16 18 21 24 29 33 36 37 41 43 45 45 46 46 49 49 47 43 37 29 27 26 35 41 43 53 49 53 57
20 22 20 19 16 14 15 14 11 10 11 13 14 15 18 23 27 31 33 37 39 40 42 44 46 46 45 44 45 49 49 45 37 25 35 39 38 41 39 42 50 53 57
22 21 19 13 10 11 13 11 12 13 14 15 17 22 24 28 32 36 40 40 40 42 43 44 46 45 43 44 41 45 46 44 46 41 42 44 40 40 41 45 43 44 49
15 11 9 9 8 7 10 12 12 11 12 18 24 29 31 36 37 39 39 41 41 41 43 43 42 45 43 44 44 42 41 41 38 45 37 30 26 31 32 34 31 37 41
13 12 10 9 8 9 12 14 16 18 21 27 30 34 38 38 40 41 41 43 44 41 41 42 43 41 43 43 44 42 40 38 36 29 32 28 25 26 25 28 29 33 32
14 11 11 11 13 15 17 20 22 24 28 31 34 35 39 42 39 39 40 40 40 40 40 41 43 41 41 40 40 34 27 24 24 25 27 28 27 27 24 27 28 30 31

GFSSE_700_spd_024.txt.gz
Wind_Speed
15 21 23 21 22 21 18 15 13 10 8 7 6 5 6 6 8 8 9 9 10 11 12 12 12 12 11 10 10 11 11 11 11 12 12 12 11 10 10 11 11 9 9
15 23 25 24 23 20 17 14 12 9 7 6 5 4 5 7 7 8 9 10 11 12 13 13 13 13 13 12 11 10 10 10 11 12 11 10 10 12 12 11 12 12 12
17 26 26 25 24 21 17 14 11 9 7 6 4 5 6 7 7 9 10 11 12 12 13 13 13 14 14 13 13 14 13 11 9 9 14 10 10 16 14 14 13 13 13
22 27 26 27 25 21 17 14 10 8 8 5 4 5 7 8 9 10 10 10 10 11 11 11 12 13 14 14 15 14 14 13 10 8 6 10 14 14 14 13 12 13 12
25 29 29 28 22 19 17 12 9 8 7 4 4 7 8 9 9 9 10 10 9 9 10 11 13 15 15 15 14 14 14 14 14 13 10 11 16 13 12 13 13 13 14
30 30 30 27 24 19 14 11 8 7 5 3 7 8 10 10 9 9 9 9 9 9 11 12 14 15 16 16 15 14 13 13 13 12 13 12 13 14 13 12 12 12 13
29 33 31 30 23 17 14 9 7 7 4 4 9 10 10 9 9 9 8 8 9 9 10 12 14 16 16 16 16 14 12 12 13 14 16 13 14 15 16 15 14 13 11
29 30 28 24 18 14 10 8 7 5 4 9 10 12 10 9 8 7 5 6 7 8 9 12 15 18 20 19 18 15 13 14 15 13 16 14 15 15 15 15 15 15 13
21 12 17 18 13 10 14 11 8 5 9 11 12 11 10 8 6 2 3 6 7 8 10 11 15 17 20 20 20 16 17 17 14 15 17 19 20 20 17 15 15 14 14
14 29 21 16 15 15 11 8 6 8 11 11 13 11 8 6 3 0 4 6 8 10 11 13 15 19 22 24 25 19 16 19 20 17 17 17 18 19 19 19 16 14 14
15 18 17 14 14 14 10 7 8 10 12 13 13 10 8 6 5 2 4 6 9 11 13 15 16 19 21 25 28 28 20 20 22 23 20 17 19 20 20 19 19 19 17
21 18 14 15 12 9 9 9 11 11 13 14 12 10 8 5 6 7 7 8 12 15 16 16 18 20 24 28 28 27 26 23 24 29 24 25 22 23 23 23 22 22 22
14 15 15 14 11 12 12 12 11 11 12 13 12 9 6 9 9 13 13 15 18 21 19 21 22 26 28 32 32 26 25 28 29 31 30 31 30 28 27 26 27 25 25
12 10 10 10 11 9 11 12 12 14 14 14 9 8 10 13 17 17 15 14 22 18 15 21 22 26 32 34 32 34 35 34 34 36 37 34 34 33 30 30 31 30 29
9 9 10 8 8 9 11 13 15 11 11 9 10 13 14 14 18 24 25 25 31 30 24 23 27 29 33 32 35 38 39 39 41 41 42 38 34 36 37 34 34 33 32
8 11 11 10 10 10 10 10 11 12 6 12 15 14 17 23 21 21 21 21 17 19 20 26 29 31 32 34 38 41 43 44 44 43 44 46 42 38 39 38 32 32 35
6 9 7 6 6 6 6 10 13 13 7 18 23 19 17 24 20 20 16 13 16 20 24 26 30 34 36 37 39 41 43 45 45 42 41 41 40 42 42 43 42 40 34
7 7 6 5 5 7 9 12 11 16 7 7 15 27 23 21 19 13 14 16 18 22 26 28 32 35 39 42 43 44 45 43 41 41 39 36 33 37 41 44 45 41 42
10 6 5 7 8 10 13 14 13 10 8 10 13 18 19 13 13 16 17 18 22 26 31 34 37 40 41 43 44 44 47 46 43 38 36 37 27 30 35 43 50 49 48
15 11 8 13 12 14 16 18 17 13 11 10 12 11 13 14 15 18 20 24 27 31 35 39 41 41 41 42 44 45 46 44 40 38 37 30 30 32 38 45 49 50 55
17 16 12 16 14 15 19 16 12 11 11 12 11 13 16 16 16 19 25 29 32 34 38 42 43 43 43 43 43 44 44 44 41 35 41 40 39 38 40 41 47 51 56
24 21 19 18 20 18 18 16 12 13 15 14 12 16 17 18 20 27 29 32 34 38 39 41 41 43 42 41 42 42 45 45 43 43 39 38 39 41 42 44 50 52 49
28 27 24 23 18 16 15 10 12 15 13 17 19 18 18 22 28 32 37 39 42 39 38 39 40 42 42 38 40 41 45 48 49 47 46 42 43 47 47 44 47 49 48
28 25 22 17 14 13 11 12 13 17 21 23 24 25 28 27 28 36 39 41 40 37 37 38 39 39 39 40 40 42 44 45 48 50 47 43 39 36 37 38 40 42 40
24 22 18 16 16 14 15 14 15 20 22 23 27 29 32 29 37 38 39 37 37 38 39 37 38 38 37 39 42 43 43 40 39 41 44 40 38 34 32 28 31 35 33
20 20 17 17 15 16 16 17 20 21 26 29 31 34 39 32 32 35 35 35 36 37 37 38 38 38 39 41 43 39 36 37 41 36 36 35 35 31 29 29 31 33 33

GFSSE_700_spd_027.txt.gz
Wind_Speed
17 21 24 24 25 23 21 19 16 13 11 8 7 6 6 9 9 9 10 10 10 10 11 12 13 13 13 12 11 9 8 8 7 7 8 8 6 9 12 11 9 9 9
16 21 25 24 26 24 22 19 17 14 11 8 7 6 7 8 9 10 11 11 11 11 12 13 13 14 15 14 13 12 11 10 9 9 7 2 9 12 12 12 12 10 9
15 24 27 28 27 24 22 19 16 13 11 8 6 6 8 8 10 11 11 11 11 11 12 13 14 15 14 14 14 13 12 11 13 13 11 9 10 12 13 13 11 10 9
12 21 27 27 27 24 22 18 15 12 11 8 6 7 8 9 11 10 11 10 10 11 12 13 13 14 15 15 14 14 13 12 15 12 9 15 14 14 13 13 14 12 11
18 24 31 30 25 22 20 16 13 12 10 7 6 8 10 11 11 10 10 9 10 11 12 13 13 13 14 14 13 12 12 14 14 13 10 10 10 10 11 12 12 13 13
22 32 35 31 26 23 18 16 13 13 10 8 9 10 12 10 10 9 9 9 11 12 12 12 13 14 14 13 13 12 12 14 9 11 10 8 8 9 9 9 9 10 11
32 39 37 34 27 28 20 16 12 12 9 9 11 12 12 10 9 9 9 9 9 8 9 10 13 15 16 16 15 13 12 13 16 14 14 9 9 10 11 10 10 9 9
40 41 40 37 27 25 21 14 12 9 7 11 13 13 11 9 9 8 6 6 5 6 6 7 10 13 15 16 19 15 12 14 15 17 19 17 16 13 12 11 10 10 9
31 39 40 31 22 22 20 12 9 7 9 13 13 13 12 9 7 4 3 4 5 6 7 8 8 10 13 14 17 17 15 16 17 18 17 19 19 17 15 13 11 10 10
18 28 42 26 23 18 16 12 10 7 12 14 15 13 11 8 4 1 3 5 8 10 10 10 11 11 13 17 24 23 17 16 17 20 20 18 18 19 19 18 16 14 13
12 17 23 23 18 15 12 10 8 11 14 14 16 14 10 5 3 3 7 9 10 12 14 12 15 15 14 17 22 24 20 17 18 20 22 24 23 21 22 21 21 20 17
25 10 26 19 13 10 9 7 10 12 14 16 16 11 7 5 4 7 10 10 12 14 20 20 16 21 21 23 26 23 18 20 25 23 24 27 29 27 26 25 24 25 24
26 24 20 17 15 13 10 10 11 13 12 12 10 8 6 7 7 10 13 15 18 19 19 17 25 24 24 25 27 27 27 27 28 29 29 29 30 31 29 26 26 26 26
21 16 12 10 8 8 10 10 11 10 10 10 10 8 9 11 14 15 15 20 24 25 25 25 26 25 25 25 29 32 33 34 34 35 35 34 33 31 33 33 30 29 28
12 10 9 7 8 8 5 4 3 5 6 6 12 12 13 14 17 16 17 17 24 27 28 23 22 26 25 27 29 32 33 35 37 39 40 39 39 38 35 36 36 31 28
9 9 9 9 7 3 1 1 3 5 8 12 13 17 16 19 18 18 17 21 18 16 16 19 24 25 26 30 33 36 37 38 38 38 40 41 41 40 39 37 37 39 32
12 11 11 7 5 4 2 3 4 7 14 20 20 20 21 17 18 20 22 20 16 20 21 21 25 28 31 34 37 37 40 39 36 36 37 38 38 37 38 41 44 42 40
12 11 8 5 5 5 3 4 9 12 4 8 11 18 25 30 27 23 21 16 20 21 23 25 28 31 35 38 39 39 39 39 39 37 37 36 37 38 39 41 43 46 48
12 8 7 3 4 6 5 9 11 12 11 7 9 11 16 21 25 22 18 18 18 23 28 29 31 33 35 37 37 37 38 38 36 35 36 36 37 38 39 42 46 50 54
4 6 6 6 7 9 10 12 13 13 10 11 10 12 16 18 18 19 18 17 20 26 28 31 37 37 36 36 35 35 36 36 35 34 36 36 37 39 40 44 48 52 55
8 8 6 6 10 11 13 15 14 14 12 12 10 13 16 17 19 19 20 24 28 31 33 36 37 35 35 35 35 34 34 34 36 35 36 38 37 37 39 43 48 54 55
15 11 12 11 12 17 20 18 17 15 12 10 14 15 16 16 17 19 20 26 30 32 35 35 35 35 35 34 34 35 34 34 36 38 38 38 39 39 40 43 47 51 53
20 19 15 18 18 22 22 21 16 12 11 14 15 13 16 19 22 24 26 31 31 33 31 30 33 34 35 34 34 36 40 41 43 43 42 43 40 40 43 46 50 52 51
26 26 19 22 24 24 20 18 17 17 16 17 17 18 20 24 27 35 32 31 33 33 32 32 32 35 35 36 36 36 39 42 44 45 45 46 45 44 36 33 36 40 43
30 26 26 25 24 19 19 17 16 17 20 20 24 25 26 29 30 38 40 35 37 34 34 36 35 34 35 36 37 41 41 41 39 41 47 44 40 31 30 33 27 29 35
27 22 28 24 20 17 16 16 16 19 21 22 26 27 29 32 36 41 41 36 34 34 35 36 34 36 38 39 39 40 39 41 39 40 42 39 36 31 30 30 32 30 31

GFSSE_700_spd_030.txt.gz
Wind_Speed
15 23 26 28 27 26 23 22 20 17 14 10 7 7 8 9 8 7 8 9 11 11 11 11 12 11 10 9 8 7 8 10 9 8 7 6 6 8 9 7 6 7 7
14 28 30 29 28 26 24 22 19 17 14 10 8 7 9 8 8 9 10 10 11 11 11 11 11 10 10 9 9 9 11 11 9 9 6 6 7 7 7 8 8 7 7
22 28 29 28 27 26 25 23 20 17 14 10 7 8 9 9 9 10 10 10 10 10 9 9 9 10 10 9 9 12 11 11 10 10 8 7 9 10 12 10 9 7 7
22 26 30 29 29 31 27 23 20 17 14 11 9 9 10 10 11 10 10 9 9 9 9 9 10 10 11 12 12 12 12 12 12 12 11 12 10 10 9 10 10 8 7
23 27 33 29 34 30 26 23 20 17 14 11 11 12 12 12 10 9 9 8 8 8 10 11 12 12 12 13 13 12 13 14 13 12 13 13 12 11 10 10 10 9 8
26 33 34 36 35 29 26 22 19 17 12 10 11 12 12 11 9 9 8 8 7 8 9 10 11 11 12 12 12 13 14 14 16 14 11 10 10 10 9 10 10 9 9
29 36 35 38 36 33 29 20 16 14 12 11 13 13 13 11 9 9 8 6 6 6 5 6 7 9 11 13 13 15 14 13 13 15 14 10 9 10 11 11 11 11 10
34 42 41 38 36 33 28 22 20 15 11 13 15 14 13 10 8 7 5 4 3 2 4 5 4 5 8 10 13 15 16 14 11 12 14 14 14 13 11 11 11 12 12
35 34 36 37 37 37 33 24 16 12 12 16 15 14 11 10 8 5 2 1 2 4 5 6 7 7 8 9 14 21 19 16 15 13 15 16 18 18 18 16 15 13 13
30 32 29 35 37 30 27 17 13 10 14 16 16 15 13 9 6 4 1 2 4 5 9 13 12 12 13 13 15 19 21 18 17 19 20 20 19 19 20 20 20 19 18
27 27 23 21 37 25 17 13 12 12 17 17 15 12 9 7 6 5 6 6 9 11 14 17 16 12 15 14 18 21 20 18 19 20 23 25 25 24 23 23 24 24 22
18 17 28 29 22 19 15 11 10 12 14 14 15 12 11 10 9 9 9 11 13 15 18 17 18 16 24 19 23 21 19 21 23 25 26 28 28 28 27 25 23 23 23
36 22 23 23 23 17 12 8 10 12 13 14 15 14 14 12 10 9 11 13 15 17 18 21 24 21 21 23 25 24 25 28 29 29 29 29 30 31 29 29 29 25 23
30 22 19 17 14 10 6 8 9 10 11 14 14 12 11 10 11 12 14 15 19 21 21 18 19 17 20 24 24 26 28 29 30 32 35 35 34 35 35 31 31 31 26
20 19 18 14 12 10 9 9 9 9 7 9 11 12 13 13 14 15 17 19 21 22 19 18 18 21 23 25 27 29 34 35 35 35 36 37 36 35 35 36 34 32 33
16 17 15 14 13 12 11 9 8 6 6 9 7 9 12 16 16 18 20 20 19 18 18 20 22 21 23 27 30 34 36 36 35 34 34 35 35 34 33 34 35 34 33
12 13 13 12 11 10 9 7 6 3 5 12 16 20 19 18 21 19 18 22 21 22 20 20 22 26 29 31 32 35 37 37 36 35 36 36 35 33 33 33 34 35 36
12 12 12 11 9 8 7 3 1 1 5 8 10 15 17 20 25 26 28 26 22 19 19 21 25 28 28 31 36 37 36 35 34 34 32 32 33 33 33 35 37 40 42
12 8 9 7 5 2 4 2 4 7 8 11 13 15 16 17 18 20 20 22 21 21 22 26 32 32 34 36 37 34 33 34 34 32 31 31 33 34 34 37 41 44 45
11 10 8 7 6 3 7 6 8 10 11 10 11 13 14 16 16 16 19 20 22 24 28 33 33 34 36 35 33 33 33 34 34 32 32 33 34 35 38 40 43 46 49
11 9 8 7 9 8 8 10 10 12 15 13 12 14 15 16 16 18 19 21 25 26 31 31 34 34 34 33 34 33 33 33 34 34 34 34 36 38 40 41 44 47 50
7 7 10 9 10 11 13 14 15 15 15 15 14 12 13 16 18 19 20 24 26 34 33 32 36 35 35 34 35 35 34 34 35 37 36 38 39 39 38 40 42 46 51
12 12 12 11 14 15 17 19 19 16 15 14 12 10 11 13 16 18 22 24 31 31 34 39 35 35 35 35 36 36 38 39 39 39 40 41 41 39 38 38 40 43 46
16 17 17 16 17 22 21 22 18 16 16 13 12 11 12 14 17 20 25 30 34 36 35 35 36 35 36 36 38 38 38 41 42 44 42 42 42 41 40 35 31 31 33
20 20 17 23 23 27 25 19 17 15 16 14 13 14 17 20 23 26 29 35 38 38 37 38 37 39 40 38 38 39 40 40 40 41 43 41 41 37 34 32 32 32 32
22 25 25 28 27 29 21 16 15 16 17 16 17 20 23 26 29 30 30 35 39 36 37 39 39 40 40 38 39 41 42 42 42 41 43 42 43 40 34 32 30 31 36

GFSSE_700_spd_033.txt.gz
Wind_Speed
18 21 26 28 28 28 27 25 22 17 13 9 6 5 6 6 6 5 5 6 7 7 7 6 7 7 8 11 11 10 9 8 7 5 6 8 9 9 8 7 6 7 8
16 21 25 29 30 30 28 25 22 18 14 10 7 8 9 9 7 7 7 7 6 6 7 7 7 7 10 11 11 10 10 9 9 7 8 7 9 9 9 9 8 8 8
20 19 29 31 30 29 25 23 19 19 14 11 9 10 9 8 8 8 7 6 6 6 7 6 6 8 10 11 11 11 12 12 11 10 9 8 8 9 9 10 9 8 8
20 23 30 31 31 27 25 21 23 20 16 12 10 10 10 10 9 8 7 6 6 6 7 7 8 9 11 12 12 12 11 10 10 10 11 12 11 10 10 9 10 10 10
23 29 32 33 31 29 28 27 24 19 15 12 11 11 11 11 10 8 6 6 6 7 8 8 9 11 13 13 13 13 12 11 11 10 10 10 11 11 10 10 9 9 10
27 29 32 37 34 30 28 27 22 19 15 12 11 11 10 11 10 8 6 6 6 6 7 8 10 11 12 12 13 13 14 14 14 13 11 11 11 12 13 13 12 11 11
29 33 36 36 36 32 30 25 21 18 15 13 11 12 12 11 10 8 7 5 3 4 5 6 7 9 12 13 16 19 19 16 14 14 13 11 12 11 11 12 13 13 13
30 38 37 37 35 32 28 23 22 17 13 12 14 14 13 12 11 9 6 3 1 3 6 7 8 8 11 13 13 16 19 17 15 15 15 16 15 14 14 13 13 13 14
34 41 28 31 36 33 27 24 23 20 15 17 17 16 15 13 11 8 4 1 3 5 7 9 11 9 11 13 15 18 20 17 15 16 19 21 20 20 20 20 19 18 16
44 36 39 38 39 38 32 30 25 18 15 17 17 15 14 12 10 6 5 4 5 8 11 15 12 9 7 13 14 19 20 18 18 18 18 20 22 23 23 23 23 22 22
21 19 26 37 40 36 25 28 17 13 17 18 17 15 13 13 10 9 4 5 8 12 16 14 15 11 13 17 16 19 18 17 17 18 20 22 22 23 24 23 23 24 24
21 28 16 25 20 29 24 15 13 14 17 17 17 15 16 13 10 6 6 9 12 14 16 17 16 17 15 14 16 20 19 21 22 24 25 26 26 24 24 23 22 22 22
21 21 30 40 36 27 16 9 9 14 17 17 17 16 14 11 8 8 10 11 15 14 16 17 15 15 14 17 19 19 20 24 27 29 29 31 30 29 26 24 23 22 21
29 23 22 23 22 18 14 10 12 14 14 15 14 11 10 9 11 12 12 13 15 18 18 18 17 17 20 20 21 23 26 28 29 30 32 33 32 31 33 29 25 21 21
20 23 23 21 17 17 15 12 10 8 9 10 12 13 11 12 14 16 17 15 17 19 19 18 18 21 21 23 26 29 31 33 35 35 35 35 34 33 32 32 29 26 23
18 17 19 19 19 18 14 11 8 8 9 11 13 12 11 13 17 18 18 16 18 22 20 18 19 21 23 26 29 31 33 38 40 39 38 36 35 33 32 32 30 28 27
19 19 18 17 17 16 13 12 10 7 7 10 11 12 15 16 16 19 20 18 24 26 20 20 20 22 25 30 33 35 39 42 41 41 38 36 35 34 33 32 32 32 33
17 17 16 16 16 15 12 11 8 5 4 7 10 11 13 15 18 22 22 24 25 20 20 22 22 26 32 37 37 38 40 43 43 39 38 37 36 33 34 34 35 36 36
16 14 12 11 12 11 10 6 5 5 6 7 10 11 14 16 17 19 18 17 18 20 22 23 27 32 36 37 38 40 42 41 40 39 38 37 35 35 36 37 38 39 40
13 13 11 8 7 6 8 5 5 5 6 8 9 12 15 16 17 18 18 18 21 24 24 28 32 34 37 36 38 40 40 41 40 40 39 38 37 37 39 40 42 43 45
8 8 8 6 6 6 5 6 7 8 10 11 12 14 14 14 16 17 18 21 24 26 28 34 37 41 42 41 43 40 40 41 41 41 40 40 40 40 41 42 43 45 47
9 8 9 7 8 7 8 9 11 13 13 13 15 15 13 14 14 16 18 21 24 29 32 35 35 36 38 39 39 40 41 40 40 40 42 42 42 42 42 42 42 43 44
8 8 9 11 11 12 12 14 16 14 14 13 13 12 14 15 15 15 18 23 28 30 32 36 35 35 36 38 38 38 41 43 43 42 42 43 44 43 40 40 40 40 40
5 6 10 14 15 15 17 18 18 16 15 12 14 15 16 15 16 20 23 26 31 38 34 35 34 35 37 39 41 41 42 45 46 48 46 44 43 42 41 39 38 36 35
13 12 11 15 15 17 21 22 21 18 16 16 16 17 18 19 22 26 30 33 37 41 41 45 37 39 39 41 43 44 45 45 46 46 48 45 43 41 39 36 34 32 34
18 17 14 17 17 17 22 24 24 19 15 19 19 21 22 26 29 32 36 39 42 40 41 46 44 42 42 42 43 44 44 45 46 45 45 45 44 41 40 38 32 33 35

GFSSE_700_spd_039.txt.gz
Wind_Speed
13 20 22 23 22 20 18 18 16 14 11 8 5 3 4 5 5 6 7 8 10 10 10 10 10 9 9 9 8 8 8 8 8 8 8 8 8 8 7 6 5 4 4
12 19 23 24 24 22 21 20 18 15 13 9 5 6 7 6 6 7 9 10 10 10 10 10 11 10 11 10 10 11 10 10 9 10 10 10 10 9 9 8 8 7 7
15 20 24 24 25 24 24 22 19 17 13 10 7 10 9 8 8 10 10 10 11 11 11 12 11 10 11 13 13 13 13 13 13 12 12 11 11 11 11 11 9 9 8
18 23 27 28 28 27 25 24 21 18 15 11 9 10 9 9 9 10 10 10 11 13 12 12 13 14 15 16 16 16 15 14 13 12 12 12 12 13 12 11 11 10 9
19 28 31 32 30 29 26 24 22 19 15 10 11 9 9 10 10 10 10 11 12 11 11 13 14 14 14 13 13 15 16 16 15 13 13 13 13 13 12 12 12 11 10
23 29 32 31 32 29 27 27 24 19 13 11 12 12 13 12 12 11 11 12 10 10 12 14 14 12 11 10 11 12 13 14 14 14 14 13 13 13 13 13 12 12 11
27 31 34 33 34 31 30 27 23 20 15 15 14 13 13 12 12 12 11 10 9 10 12 14 14 12 11 10 11 12 14 14 14 15 15 14 14 14 14 15 14 13 11
24 29 36 37 39 36 32 26 24 18 16 19 16 16 14 13 12 11 10 9 9 10 12 14 12 11 9 9 11 12 13 14 15 15 16 16 17 17 17 17 17 15 15
24 31 38 41 31 36 33 31 21 19 25 21 19 16 15 14 12 9 8 9 8 9 10 11 10 10 8 8 14 11 12 13 13 14 15 17 18 19 20 21 22 21 19
23 32 37 40 36 42 34 30 25 29 25 21 15 15 16 14 11 9 7 5 4 6 8 10 11 10 8 10 9 8 12 12 12 14 17 18 17 16 19 21 22 23 22
17 28 38 40 44 43 33 32 33 31 23 19 24 19 16 13 10 8 5 1 3 7 9 11 11 9 7 8 8 11 11 13 15 17 17 19 20 20 21 23 24 24 23
20 16 27 23 31 37 43 39 34 33 28 29 20 18 16 12 8 6 4 2 3 7 10 10 10 10 10 10 12 11 13 16 19 21 23 25 26 24 25 25 23 19 20
19 20 19 38 30 43 42 39 27 30 31 23 21 20 15 11 7 5 6 6 5 7 9 10 12 13 13 12 11 12 16 22 25 26 27 29 30 31 29 26 23 22 21
11 17 28 26 26 39 38 34 32 27 23 22 21 17 12 10 8 8 9 8 9 11 11 14 16 14 13 14 15 18 22 25 26 27 30 32 33 33 33 31 28 25 25
11 10 21 26 41 37 34 28 24 25 23 20 17 15 14 12 11 10 10 11 12 13 13 16 15 13 14 16 19 22 25 26 27 28 32 34 34 34 34 33 34 30 27
30 35 45 40 31 31 26 24 22 23 22 19 19 17 14 12 11 9 12 13 13 15 15 15 12 13 16 19 22 26 28 30 31 32 34 36 35 34 34 34 35 36 32
17 19 18 19 19 20 21 22 22 21 20 18 17 15 13 11 10 13 13 12 11 11 12 11 12 14 17 22 26 30 33 35 35 35 34 33 33 33 34 34 35 35 38
18 18 18 19 21 22 22 22 20 19 18 16 15 14 14 12 11 10 10 10 11 11 10 11 14 17 21 26 30 32 34 35 36 37 36 35 34 34 36 37 39 40 41
21 21 19 18 18 19 19 17 16 16 15 15 15 15 14 12 11 10 11 12 12 12 12 14 17 20 24 27 29 33 34 33 36 39 40 38 37 37 38 39 42 44 45
20 20 18 18 17 18 18 17 15 13 12 11 12 12 11 11 12 12 14 14 14 14 15 18 21 24 27 28 29 31 32 31 35 40 39 38 40 40 40 41 45 46 47
18 18 18 17 17 17 14 12 10 8 8 9 9 10 12 12 13 13 15 15 15 17 19 21 23 26 30 33 33 37 34 36 37 40 38 37 40 41 43 43 46 48 49
15 15 15 15 14 12 12 11 11 9 9 11 11 12 13 15 15 15 16 17 18 19 20 23 26 30 33 37 40 42 46 46 42 43 39 40 41 41 42 45 49 50 51
12 10 11 12 12 12 13 14 13 12 11 10 8 11 15 17 17 17 18 19 21 22 24 28 31 35 38 40 45 37 40 42 42 42 38 38 40 42 44 47 49 49 49
11 11 10 11 13 14 15 16 12 11 12 13 16 17 18 20 21 20 21 23 24 27 29 33 35 36 44 46 45 45 45 42 42 41 41 37 41 43 45 46 46 47 48
11 10 11 13 15 18 17 15 14 13 17 18 21 23 23 22 25 23 23 25 28 31 33 36 41 46 35 41 42 39 37 38 38 40 43 42 42 42 42 43 43 44 45
15 15 17 18 19 18 20 16 15 15 16 19 24 25 24 25 26 27 27 28 30 33 39 41 46 37 36 43 41 37 37 40 40 40 41 39 40 40 41 40 38 39 40

GFSSE_700_spd_042.txt.gz
Wind_Speed
11 12 17 20 21 20 18 17 15 12 9 6 4 1 4 8 9 10 12 13 12 12 11 10 10 11 11 11 10 10 10 11 11 11 10 9 8 8 7 5 4 3 3
13 13 19 20 22 20 19 18 17 14 11 8 5 3 5 7 9 11 13 13 12 12 12 11 12 11 12 12 13 13 13 12 12 11 10 10 10 9 8 7 6 6 6
18 14 20 21 23 22 20 19 17 15 13 10 7 6 5 8 11 13 13 13 12 13 13 13 13 14 14 15 14 14 13 13 12 11 11 10 10 9 9 8 8 7 6
14 17 17 24 25 23 22 20 19 17 16 12 11 9 9 11 13 14 14 14 14 14 14 13 12 12 12 13 13 13 14 13 12 11 11 11 11 11 11 10 9 8 7
12 20 22 27 27 26 24 22 21 20 17 15 13 11 11 13 14 14 15 16 15 14 14 14 12 11 10 10 10 11 11 12 12 14 13 13 12 12 11 10 10 10 9
14 26 27 30 29 27 26 24 23 21 18 15 14 13 12 14 13 14 16 15 14 13 12 11 10 9 8 9 10 12 13 13 14 12 12 12 13 13 13 13 12 11 10
18 19 31 32 31 29 27 26 24 21 19 16 16 15 15 16 15 15 15 13 13 11 11 10 10 10 8 9 11 11 11 12 11 11 12 13 13 13 13 14 15 15 14
20 26 34 35 35 34 29 24 22 22 18 16 17 18 18 17 17 16 13 12 11 9 10 10 11 11 8 7 10 11 10 11 12 12 13 14 15 16 16 17 17 18 18
27 35 34 36 39 35 33 27 28 24 21 19 20 19 17 16 16 14 12 9 9 8 8 9 10 9 7 7 9 9 10 11 11 12 14 15 16 15 15 17 18 19 19
19 34 29 35 36 42 43 33 26 24 22 22 23 20 18 16 15 13 10 8 6 7 8 9 9 8 7 7 8 8 9 10 13 14 14 15 16 16 17 18 20 20 20
23 27 32 39 40 39 32 35 29 26 27 27 25 15 17 16 14 12 9 5 4 6 7 8 9 8 7 7 7 7 9 12 14 16 18 19 19 18 19 19 19 18 18
21 22 28 29 42 42 45 39 37 34 31 27 23 24 19 15 12 9 5 3 2 4 6 7 8 9 6 8 7 7 9 13 16 16 17 19 20 21 22 22 21 19 18
16 13 34 43 46 36 37 38 35 34 28 20 27 22 17 14 11 7 5 3 3 5 7 6 9 9 7 7 8 10 12 14 17 19 20 22 25 26 26 25 23 22 20
18 16 22 24 23 34 33 41 41 33 29 31 24 20 17 14 11 8 6 6 7 9 9 9 12 10 8 9 11 12 15 19 22 25 26 28 30 31 29 27 24 24 23
13 14 17 16 26 27 22 47 41 34 30 22 20 20 17 16 12 10 9 9 10 12 11 12 13 10 10 10 12 17 20 22 25 26 28 27 27 27 28 29 28 25 25
10 10 24 20 18 13 34 35 33 30 26 21 21 21 19 16 13 13 10 10 12 12 13 14 13 10 11 14 16 20 22 24 25 25 26 28 27 27 27 28 29 30 28
21 27 38 37 31 34 35 32 26 28 25 21 22 22 19 17 15 12 11 14 13 13 13 12 11 12 14 16 19 23 23 26 25 22 24 27 30 28 28 29 30 32 34
18 21 24 28 27 27 23 22 23 24 23 23 23 22 20 17 14 12 14 14 13 13 12 12 12 14 16 19 22 25 25 24 25 26 27 31 31 31 30 31 33 33 35
16 16 17 19 20 20 22 22 22 22 22 23 22 20 19 17 15 14 14 13 13 13 13 14 14 16 19 22 24 27 28 30 35 40 37 36 35 33 33 35 34 37 38
18 17 16 17 19 18 19 21 21 22 21 19 19 18 18 17 16 14 14 13 14 14 15 15 16 18 22 24 27 30 34 36 40 35 32 36 38 36 35 35 38 39 38
17 18 17 17 17 17 16 16 16 15 15 15 15 17 18 17 15 15 14 14 14 16 16 17 19 22 24 26 29 35 40 39 38 37 40 42 40 34 34 34 34 37 42
17 17 16 16 15 15 16 16 16 15 15 17 17 17 18 18 17 17 17 17 16 18 19 20 23 25 27 29 33 37 40 45 43 43 41 39 34 35 37 37 37 40 41
15 15 16 17 18 18 18 18 18 17 15 13 15 17 17 18 19 21 22 21 20 20 22 24 26 29 31 34 37 42 42 32 41 43 39 33 35 37 38 38 40 40 42
15 17 18 19 18 18 19 18 18 17 15 15 15 18 20 20 21 25 25 24 23 24 25 25 28 31 34 38 43 38 37 32 31 32 40 42 40 37 40 37 37 41 42
18 17 17 18 20 20 20 20 19 19 19 19 19 23 24 25 25 25 24 26 25 25 27 28 30 34 36 34 38 38 36 35 32 32 35 36 41 42 40 39 37 37 39
20 20 21 21 21 22 24 22 21 22 24 21 20 20 23 26 27 26 26 27 26 25 28 31 33 33 34 35 36 36 38 35 37 37 37 38 39 37 40 36 34 37 38

GFSSE_700_spd_045.txt.gz
Wind_Speed
9 14 15 17 20 21 19 18 16 12 9 6 5 5 8 9 10 12 12 13 14 13 12 14 13 13 12 11 11 11 11 11 11 11 11 10 10 9 8 8 7 5 4
14 14 15 18 21 21 19 18 16 13 10 7 5 6 9 9 12 13 14 14 13 14 14 14 14 13 12 12 12 13 12 12 11 11 11 11 11 10 10 9 9 8 7
18 16 17 19 20 22 21 20 17 14 12 9 7 9 11 12 13 14 14 14 15 15 14 14 15 14 14 14 13 13 13 13 12 13 13 12 11 10 10 9 9 8 7
12 17 19 20 22 23 23 21 19 16 13 10 8 11 13 14 15 14 14 16 16 15 15 14 13 13 12 13 13 13 13 13 12 14 11 11 10 10 9 9 9 9 9
14 18 20 22 23 24 23 22 20 17 14 12 11 13 16 15 14 15 16 17 16 15 15 13 11 11 11 11 12 11 11 10 10 11 10 11 10 10 10 10 10 10 9
18 20 23 22 29 27 25 23 21 19 16 13 13 15 18 16 15 17 18 16 16 13 11 11 11 10 10 11 11 11 11 10 13 10 11 10 11 11 12 12 11 12 12
18 22 21 30 30 29 27 25 23 19 17 17 17 18 19 17 17 18 16 16 13 11 11 12 11 10 9 9 9 8 9 10 10 11 12 13 13 13 13 13 13 14 14
21 20 28 31 32 31 29 27 22 22 18 19 20 20 18 18 19 18 15 14 11 10 10 10 9 8 7 7 9 8 7 9 11 12 12 13 15 15 14 13 14 14 15
25 27 32 30 36 34 32 30 28 24 23 22 23 20 20 20 19 16 15 12 9 9 8 8 8 8 6 7 7 6 8 9 9 10 14 14 15 14 14 15 17 17 18
24 25 27 34 32 38 38 38 36 27 25 24 25 21 22 21 18 15 13 10 7 7 7 7 9 9 8 6 6 6 7 6 11 11 11 11 12 14 15 17 17 17 17
23 19 22 22 33 38 38 36 31 28 28 28 24 25 22 17 17 15 11 7 5 5 6 7 8 8 6 5 4 4 4 10 10 11 14 14 14 15 17 19 18 17 16
19 19 23 23 28 34 46 46 44 37 32 29 27 23 21 20 17 14 9 6 3 2 4 5 6 7 6 6 4 5 8 10 11 14 17 18 20 20 20 20 19 18 17
19 19 21 24 25 42 40 36 45 38 34 34 26 22 29 21 15 12 8 5 2 2 4 6 7 9 7 6 6 7 9 12 15 16 17 19 19 20 19 19 18 19 18
20 17 18 24 35 35 43 34 43 41 38 35 33 28 22 18 15 11 8 6 4 6 8 10 9 10 7 7 6 8 11 14 15 18 16 19 21 22 24 23 21 19 20
16 21 20 34 34 42 31 17 40 44 42 37 33 23 21 18 14 11 9 7 7 9 11 12 13 12 9 7 8 11 13 13 16 19 19 18 22 25 27 28 26 23 22
17 12 15 18 26 34 28 35 50 46 35 33 23 21 23 19 16 13 11 9 11 12 13 14 14 11 9 10 10 12 15 17 18 17 22 22 25 28 29 29 31 28 26
12 11 18 26 17 14 20 35 35 26 22 20 24 26 22 19 16 15 12 13 13 14 15 14 13 12 13 12 12 15 18 18 19 20 28 35 38 28 29 30 30 31 33
12 13 26 34 34 31 34 33 28 26 26 26 22 23 22 20 17 15 15 15 15 15 15 14 15 15 15 15 16 19 20 21 23 26 30 32 22 32 37 31 29 31 32
22 25 26 26 26 25 24 24 24 25 23 23 23 22 20 19 18 18 17 15 15 15 15 15 16 16 17 18 20 22 24 26 29 32 35 32 30 33 34 35 29 31 31
16 19 20 23 23 21 21 18 19 22 22 22 21 20 20 21 21 19 18 17 16 16 16 16 15 17 20 21 24 29 31 31 34 38 40 34 36 33 30 29 32 35 33
13 16 19 20 20 19 18 20 20 20 20 20 20 21 21 22 21 20 22 17 17 18 17 16 18 19 21 23 27 31 36 42 42 39 32 36 36 35 32 29 29 30 37
15 16 17 17 17 16 16 17 17 17 16 16 18 18 19 20 20 21 23 19 19 20 20 20 21 22 26 25 27 31 35 38 43 44 35 33 34 31 35 37 36 34 36
14 14 15 16 17 17 16 17 18 18 18 18 18 17 18 20 20 22 24 23 23 25 24 24 24 25 28 29 28 33 35 34 31 34 43 36 35 35 36 34 36 37 38
16 17 17 17 17 18 19 18 19 18 19 18 18 18 19 21 22 24 25 26 27 27 28 27 27 26 27 34 34 37 32 32 33 30 33 41 41 42 39 37 37 37 40
18 17 17 17 18 20 21 22 24 24 23 22 23 22 20 23 24 27 28 26 27 27 29 29 28 25 29 33 33 34 39 38 37 34 32 26 31 36 40 45 44 40 38
18 18 18 19 20 22 23 25 23 22 22 25 27 22 22 24 24 27 31 31 30 28 31 29 30 31 30 33 36 36 37 37 35 34 36 35 34 34 37 41 44 44 39

GFSSE_700_spd_048.txt.gz
Wind_Speed
16 19 17 20 22 23 22 21 18 15 12 10 8 10 12 12 14 15 16 15 14 14 14 14 14 14 13 12 12 12 11 11 11 12 12 12 11 11 10 9 9 7 7
7 14 15 19 22 22 22 21 18 16 13 11 9 11 12 13 14 16 15 15 15 15 15 15 15 14 13 13 13 13 12 12 11 11 12 11 10 10 10 10 10 9 9
8 8 16 19 22 23 23 22 20 17 14 12 10 13 13 14 15 15 15 16 16 16 17 16 15 15 15 14 13 13 12 12 10 11 14 12 11 11 11 11 10 10 10
18 8 18 22 24 25 24 23 21 18 15 12 11 13 15 16 16 15 16 17 17 17 16 16 15 14 13 13 13 12 12 11 11 14 12 12 11 11 10 10 10 9 9
10 15 17 20 25 26 25 23 21 18 15 12 13 15 16 17 16 16 18 18 17 17 16 14 13 13 13 12 12 11 11 9 12 12 11 12 11 11 11 11 10 10 10
10 22 22 28 26 26 26 24 21 19 16 14 16 17 18 18 17 18 18 18 16 14 13 13 12 12 13 12 11 11 10 8 11 10 10 11 11 11 10 10 9 10 10
16 20 22 21 22 26 22 23 22 20 18 17 19 19 20 19 19 19 18 16 14 15 14 13 12 11 10 10 9 9 11 9 10 10 10 11 11 11 11 11 11 11 12
14 19 17 16 25 23 26 25 23 21 21 19 20 21 21 21 21 19 18 15 14 13 11 10 9 9 8 9 9 8 8 7 8 11 11 12 13 14 15 15 15 16 16
14 13 15 27 31 29 27 25 24 21 22 23 22 22 22 23 21 19 16 14 12 11 10 9 9 9 8 7 7 7 7 6 7 13 13 12 12 13 14 15 16 17 17
15 16 13 19 32 33 29 27 24 24 22 22 25 24 23 24 21 19 15 12 10 10 10 10 10 9 8 6 5 5 5 5 8 11 10 11 13 14 15 16 16 16 16
16 18 21 16 26 22 25 28 28 27 27 27 29 27 26 24 22 18 13 11 9 8 8 7 8 8 6 4 3 3 4 6 8 11 11 12 14 15 17 17 17 17 16
12 14 21 21 23 21 16 33 40 39 36 34 30 26 29 25 17 12 12 10 7 5 4 4 4 5 4 2 4 4 5 6 8 10 12 14 16 15 16 18 17 16 15
10 13 10 15 24 24 23 24 41 38 35 30 30 30 23 20 16 15 11 7 4 1 2 4 6 7 8 7 5 4 6 9 12 12 14 15 14 14 16 18 18 18 17
11 12 12 16 28 28 30 40 51 46 41 36 35 33 26 25 20 15 10 6 4 3 5 6 7 8 8 5 4 6 8 10 13 12 12 10 13 19 24 24 21 20 19
10 11 15 16 20 32 44 48 25 40 44 45 45 38 34 25 18 15 11 8 7 5 6 9 9 9 9 7 7 7 7 9 11 11 9 13 24 26 22 21 24 23 22
13 15 18 25 32 37 40 32 40 51 54 43 31 27 26 20 19 14 10 8 7 6 9 10 11 10 9 9 9 9 10 10 12 16 17 19 25 26 19 26 31 26 23
18 18 13 18 13 24 32 20 26 39 34 34 35 22 25 24 18 16 11 12 8 10 11 13 12 11 10 12 10 12 11 13 15 18 24 30 29 28 25 27 29 28 28
7 6 12 15 26 18 27 17 29 33 35 32 24 26 24 19 16 18 15 13 11 11 13 13 14 14 14 13 14 14 16 18 19 22 24 31 36 35 27 27 26 26 27
16 16 18 20 19 23 22 14 34 30 33 32 25 22 20 22 20 19 17 15 12 13 15 15 14 15 16 15 17 18 18 22 24 26 29 29 24 27 34 31 25 26 26
22 30 30 26 23 28 32 41 42 34 29 19 17 19 20 21 23 21 18 16 14 17 17 16 18 17 18 18 20 25 24 25 28 30 34 33 32 23 25 30 28 28 29
15 20 20 20 20 21 23 23 22 22 19 19 20 20 22 24 22 20 19 19 17 20 18 17 18 20 19 21 22 23 28 33 33 36 36 34 32 31 27 26 27 30 34
15 18 18 17 18 18 17 17 19 19 19 19 21 22 22 18 19 19 21 21 18 23 22 20 19 21 24 23 24 26 27 32 37 36 36 34 31 28 32 32 31 28 29
18 20 21 20 19 19 19 18 18 19 20 21 20 18 16 17 18 19 20 23 22 24 27 24 24 25 26 28 26 26 29 35 38 36 36 38 38 37 34 31 34 36 34
12 15 16 18 18 18 19 19 17 17 18 17 17 17 19 20 20 21 21 25 27 25 28 26 27 28 28 33 28 27 31 36 36 32 35 38 39 38 39 42 41 36 33
9 10 12 15 17 17 19 18 20 21 18 17 16 17 20 20 22 23 23 25 26 29 30 30 28 29 30 31 32 36 35 35 34 39 42 28 34 39 39 42 43 45 43
15 15 14 14 14 15 17 19 19 19 18 19 19 24 28 23 26 26 24 24 24 26 31 34 31 32 31 28 33 29 33 36 39 42 46 37 36 34 34 34 40 44 46